FW2782 Weather Reports


time (UTC)temp
C
wind
direction
speed
KPH
gust
KPH
rain 1hr
cm
rain 24hr
cm
rain mn
cm
humidity
%
barometer
mb
20260505151517 21 129 3.2 12.9 0.00 1.75 1.40 74 1010.9
20260505124508 22 157 0.0 8.0 0.00 1.75 1.40 69 1011.3
20260505123008 21 157 1.6 11.3 0.00 1.75 1.40 70 1011.5
20260505121600 21 47 0.0 8.0 0.00 1.75 1.40 71 1011.6
20260505114556 20 143 0.0 6.4 0.00 1.75 1.40 71 1011.9
20260505113054 20 94 1.6 6.4 0.00 1.75 1.40 72 1011.8
20260505111546 20 140 1.6 4.8 0.03 1.75 1.40 85 1011.9
20260505101554 16 335 1.6 6.4 0.28 1.70 1.37 91 1012.4
20260505100054 16 347 1.6 4.8 0.05 1.42 1.12 89 1012.3
20260505094533 16 64 0.0 3.2 0.03 1.42 1.09 89 1012.2
20260505093030 16 74 0.0 3.2 0.00 1.42 1.09 89 1012.3
20260505091529 16 84 0.0 4.8 0.00 1.42 1.09 90 1012.2
20260505090026 16 91 0.0 4.8 0.00 1.42 1.09 91 1012.2
20260505084526 15 105 1.6 6.4 0.00 1.42 1.09 92 1012.3
20260505083025 15 132 0.0 3.2 0.00 1.42 1.09 93 1012.1
20260505081521 15 121 1.6 6.4 0.00 1.42 1.09 94 1012.2
20260505080019 14 36 0.0 3.2 0.00 1.42 1.09 95 1012.2
20260505074516 14 135 0.0 0.0 0.00 1.42 1.09 95 1012.2
20260505073031 14 148 0.0 0.0 0.00 1.42 1.09 96 1012.2
20260505071514 13 148 0.0 0.0 0.00 1.42 1.09 96 1012.1
20260505070014 13 147 0.0 0.0 0.00 1.45 1.09 96 1011.9
20260505064517 13 147 0.0 0.0 0.00 1.45 1.09 96 1011.9
20260505063010 13 147 0.0 0.0 0.00 1.45 1.09 96 1011.9
20260505061519 12 147 0.0 1.6 0.00 1.45 1.09 96 1011.8
20260505060008 12 147 0.0 3.2 0.00 1.45 1.09 96 1011.8
20260505054506 12 148 0.0 3.2 0.00 1.45 1.09 96 1011.6
20260505053009 12 159 0.0 3.2 0.00 1.45 1.09 96 1011.6
20260505051515 12 159 0.0 0.0 0.00 1.45 1.09 95 1011.4
20260505041508 12 159 0.0 3.2 0.13 1.45 1.09 95 1011.3
20260505040003 12 158 0.0 4.8 0.28 1.45 1.09 95 1011.1
20260505034501 12 194 0.0 4.8 0.48 1.45 1.09 95 1011.2
20260505033104 12 204 0.0 6.4 0.51 1.42 1.07 95 1011.2
20260505031558 12 153 1.6 9.7 0.43 1.37 0.97 95 1011.0
20260505030057 12 46 1.6 6.4 0.25 1.19 0.79 95 1011.4
20260505024556 12 163 1.6 8.0 0.05 0.99 0.61 95 1011.7
20260505023056 12 179 1.6 11.3 0.03 0.94 0.53 95 1011.7
20260505021553 12 117 1.6 6.4 0.03 0.94 0.53 95 1011.7
20260505020055 12 144 0.0 4.8 0.03 0.94 0.53 94 1011.9
20260505014557 12 138 3.2 6.4 0.03 0.94 0.53 94 1012.0
20260505013053 12 181 0.0 3.2 0.08 0.91 0.51 94 1011.8
20260505011552 12 146 0.0 8.0 0.10 0.91 0.51 94 1012.0
20260505010107 12 167 0.0 8.0 0.10 0.91 0.51 94 1012.2
20260505004546 12 105 1.6 12.9 0.13 0.91 0.51 94 1012.4
20260505003048 12 176 3.2 12.9 0.05 0.84 0.43 94 1012.6
20260505001544 12 136 3.2 11.3 0.23 0.81 0.43 94 1012.4
20260505000047 12 142 1.6 14.5 0.28 0.81 0.43 94 1012.5
20260504234541 12 135 3.2 16.1 0.30 0.79 0.41 93 1012.4
20260504233039 12 337 3.2 12.9 0.38 0.79 0.38 93 1012.5
20260504231533 12 33 3.2 12.9 0.20 0.61 0.20 93 1013.0
20260504230040 12 46 1.6 9.7 0.15 0.53 0.15 93 1013.4
20260504224528 12 177 3.2 12.9 0.08 0.48 0.08 92 1013.2
20260504223025 12 78 1.6 16.1 0.03 0.41 0.00 92 1013.8
20260504221539 12 134 3.2 12.9 0.03 0.41 0.00 91 1013.8
20260504220023 12 178 3.2 16.1 0.05 0.41 0.41 91 1014.1
20260504214519 12 355 4.8 19.3 0.08 0.41 0.41 91 1013.6
20260504213017 12 173 3.2 17.7 0.05 0.38 0.38 91 1013.9
20260504211514 12 91 6.4 22.5 0.05 0.38 0.38 90 1014.4
20260504210015 13 59 3.2 12.9 0.03 0.33 0.33 91 1014.4
20260504204610 13 355 3.2 12.9 0.00 0.33 0.33 91 1014.7
20260504203011 13 17 1.6 16.1 0.03 0.33 0.33 91 1014.9
20260504201507 13 107 6.4 14.5 0.03 0.33 0.33 91 1014.9
20260504200007 13 57 1.6 8.0 0.03 0.33 0.33 91 1015.1
20260504194507 13 340 1.6 16.1 0.03 0.33 0.33 92 1015.1
20260504193005 13 55 1.6 9.7 0.00 0.30 0.30 92 1015.0
20260504191505 13 163 1.6 11.3 0.00 0.30 0.30 91 1014.6
20260504190006 13 57 1.6 6.4 0.00 0.30 0.30 92 1014.6
20260504184504 13 61 1.6 8.0 0.03 0.30 0.30 92 1014.6
20260504183004 13 225 3.2 17.7 0.10 0.30 0.30 91 1014.7
20260504181508 13 71 3.2 12.9 0.23 0.30 0.30 91 1014.6
20260504180002 13 5 3.2 16.1 0.23 0.30 0.30 90 1014.8
20260504174600 14 195 4.8 22.5 0.23 0.28 0.28 91 1015.0
20260504173059 15 156 4.8 14.5 0.15 0.20 0.20 89 1015.1
20260504171559 15 131 3.2 11.3 0.00 0.05 0.05 87 1015.3